Location: Knowlton
(51.2333°N, 1.2667°E)
Time: 05:08:52
(UTC+00:00)

Lacrosse 5 rocket - Pass Details

Date: 18 April 2021
Orbit: 461 x 634 km, 57.0° (Epoch: 06 May)

Event Time Altitude Azimuth Distance (km) Brightness Sun altitude
Rises 22:43:14 0° 297° (WNW) 2,767 5.6 -25.7°
Reaches altitude 10° 22:45:28 10° 302° (WNW) 1,897 4.7 -25.8°
Maximum altitude 22:49:43 55° 20° (NNE) 728 2.1 -26.1°
Enters shadow 22:49:53 54° 29° (NNE) 732 2.0 -26.1°
